Location: Newark
(45.8667°N, 9.7333°E)
Time: 06:19:51
(UTC+00:00)

Vanguard 1 - Visible Passes

Search period start: 20 January 2020 00:00
Search period end: 30 January 2020 00:00
Orbit: 651 x 3832 km, 34.2° (Epoch: 19 January)

Date Brightness Start Highest point End Pass type
(mag) Time Alt. Az. Time Alt. Az. Time Alt. Az.
20 Jan 11.2 18:10:39 10° SW 18:14:49 26° SSE 18:16:46 22° SE visible
20 Jan 12.5 20:28:51 10° WSW 20:29:29 13° WSW 20:29:29 13° WSW visible
21 Jan 11.1 18:31:09 10° SW 18:35:29 28° S 18:36:37 26° SSE visible
22 Jan 11.1 18:51:46 10° SW 18:56:12 29° S 18:56:27 28° S visible
23 Jan 11.3 16:54:31 10° SSW 16:57:41 19° SSE 17:01:24 10° ESE visible
23 Jan 11.3 19:12:28 10° WSW 19:16:18 27° S 19:16:18 27° S visible
24 Jan 11.2 17:14:51 10° SW 17:18:19 21° SSE 17:22:31 10° ESE visible
24 Jan 11.6 19:33:19 10° WSW 19:36:10 23° SSW 19:36:10 23° SSW visible
25 Jan 11.1 17:35:23 10° SW 17:39:00 23° S 17:43:21 10° ESE visible
25 Jan 12.0 19:54:17 10° WSW 19:56:04 17° SW 19:56:04 17° SW visible
26 Jan 11.2 17:56:03 10° SW 17:59:43 23° S 18:03:16 13° SE visible
26 Jan 12.4 20:15:31 10° SW 20:15:59 12° SW 20:15:59 12° SW visible
27 Jan 11.3 18:16:51 10° SW 18:20:27 22° S 18:23:12 16° SSE visible
28 Jan 11.5 18:37:48 10° SW 18:41:12 19° S 18:43:11 16° SSE visible
29 Jan 11.8 18:58:58 10° SW 19:01:58 16° SSW 19:03:11 15° S visible
